[[{"header":{"parameterUnit":"m.s-1","parameterCategory":1,"la1":30.2991,"la2":30.254,"lo1":-89.0895,"lo2":-89.0444,"dy":0.0017,"dx":0.0017,"nx":28,"ny":28,"refTime":"2026-01-11T03:00:00:Z","depth":0,"parameterNumber":2,"parameterNumberName":"U-component_of_WINDS"},"data":[0,0,0,0,0,0,0,0,0,0,0,0,0,0,0,0,0,0,0,0,0,0,0,0,0,0,0,0,0,0,0,0,0,0,0,0,0,0,0,0,0,0,0,0,0,0,0,0,0,0,0,0,0,0,0,0,0,0,2.0852,2.0851,0,2.0799,2.0798,2.0797,2.0762,2.0762,2.0762,2.0762,2.0703,2.0702,2.07,0,0,0,0,0,0,0,0,0,0,0,0,0,2.0923,2.0922,2.0852,2.0851,2.0851,2.0799,2.0798,2.0797,2.0762,2.0762,2.0762,2.0762,2.0704,2.0702,2.07,0,0,0,0,0,0,0,0,0,0,0,0,0,2.0883,2.0921,2.0852,2.0827,2.0825,2.0799,2.0798,2.0797,2.0762,2.0762,2.0762,2.0762,2.0704,2.0702,2.07,2.0694,0,0,2.0694,2.0693,0,0,0,0,0,0,0,0,2.0885,2.088,2.0832,2.0829,2.0826,2.0787,2.0801,2.0762,2.0763,2.0786,2.0762,2.0761,2.0731,2.0727,2.0717,2.0691,2.0688,2.0694,2.0692,2.0691,2.0691,0,0,0,0,0,0,0,2.0888,2.0882,2.0831,2.0831,2.0827,2.0818,2.0812,2.0794,2.0761,2.0784,2.0781,2.0776,2.0729,2.0719,2.0716,2.0688,2.0694,2.0692,2.0691,2.069,2.0656,2.0656,0,0,0,0,0,0,2.0895,2.0885,2.0832,2.0829,2.0855,2.0817,2.081,2.08,2.0761,2.0755,2.0776,2.0774,2.0723,2.0718,2.0713,2.0705,2.0691,2.069,2.0688,2.0656,2.0656,2.0656,0,0,0,0,0,0,2.0897,2.0891,2.0835,2.0856,2.0849,2.0816,2.0804,2.0799,2.0789,2.0755,2.0749,2.0772,2.0722,2.0716,2.07,2.0702,2.0689,2.0687,2.0655,2.0656,2.0656,2.0687,0,0,0,0,0,0,2.0899,2.0891,2.0889,2.0857,2.0848,2.0822,2.0805,2.0798,2.0786,2.0783,2.0749,2.0743,2.0722,2.0703,2.0698,2.0699,2.0685,2.0655,2.0655,2.0656,2.0685,2.0688,2.0691,0,0,0,0,0,2.0901,2.0898,2.0889,2.0883,2.0844,2.0823,2.0817,2.0793,2.0786,2.0783,2.0762,2.0745,2.0703,2.0702,2.0695,2.0696,2.0654,2.0655,2.0656,2.0684,2.0688,2.0691,0,0,0,0,0,0,2.0929,2.0893,2.0883,2.0869,2.085,2.0817,2.0812,2.0798,2.0778,2.0776,2.0747,2.0739,2.0726,2.0709,2.0708,2.0689,2.0677,2.0676,2.07,2.0703,2.0706,2.071,2.0683,0,0,0,0,0,2.0934,2.0921,2.089,2.0881,2.0872,2.0844,2.0834,2.0818,2.0795,2.0786,2.0764,2.0742,2.0724,2.0713,2.0695,2.0683,2.0676,2.0681,2.0684,2.0686,2.0686,2.068,2.0682,2.0659,2.0659,2.0659,0,0,2.0943,2.0922,2.0915,2.0886,2.0869,2.0856,2.0837,2.0823,2.0813,2.0784,2.0767,2.075,2.0724,2.0711,2.0704,2.0697,2.0691,2.0687,2.0689,2.0687,2.0681,2.0683,2.0686,2.0659,2.0659,2.0659,0,0,2.0954,2.0936,2.0928,2.0912,2.0887,2.0869,2.0867,2.0838,2.0826,2.0809,2.0788,2.0775,2.0745,2.0728,2.0715,2.0723,2.0707,2.0718,2.0731,2.0726,2.0728,2.073,2.0733,2.0735,2.0718,2.0718,2.0718,0,2.0968,2.0948,2.0925,2.0913,2.0901,2.0877,2.0868,2.0854,2.0824,2.0816,2.0809,2.0772,2.0753,2.0736,2.0738,2.0729,2.0726,2.0721,2.073,2.0731,2.0732,2.0735,2.0737,2.0719,2.0719,2.0719,2.0719,0,2.0967,2.0953,2.0949,2.0924,2.0911,2.0901,2.0877,2.0867,2.0853,2.0836,2.082,2.0797,2.0774,2.0769,2.0754,2.0751,2.0748,2.0736,2.0723,2.0737,2.0739,2.074,2.0722,2.0721,2.0721,2.072,0,0,2.099,2.0955,2.0954,2.0943,2.0915,2.0904,2.0893,2.0873,2.0866,2.0847,2.0837,2.0814,2.0804,2.079,2.0773,2.0769,2.0778,2.0757,2.0756,2.0762,2.0774,2.0783,2.0785,2.0768,2.0768,2.0768,2.0777,0,2.0997,2.0977,2.0958,2.0945,2.0933,2.0912,2.0903,2.0885,2.0869,2.0857,2.0839,2.0823,2.0811,2.0802,2.0797,2.0778,2.078,2.0777,2.0758,2.0758,2.0765,2.0786,2.0795,2.0804,2.0777,2.0778,2.0778,0,2.1,2.0985,2.0972,2.0948,2.0942,2.0934,2.0916,2.0904,2.0884,2.0873,2.0859,2.0842,2.083,2.082,2.0803,2.0802,2.0793,2.0783,2.0783,2.0779,2.0768,2.0784,2.0807,2.0808,2.0779,2.0779,2.0779,0,2.102,2.0996,2.0985,2.0976,2.0948,2.0943,2.0931,2.0911,2.0901,2.0884,2.0878,2.086,2.085,2.0836,2.0815,2.0809,2.0801,2.0789,2.0792,2.0793,2.079,2.079,2.0812,2.0785,2.0785,2.0785,2.0785,0,2.1029,2.1021,2.0994,2.0987,2.0979,2.0958,2.095,2.0936,2.0919,2.0909,2.0889,2.088,2.0853,2.0841,2.0825,2.0815,2.081,2.0801,2.0796,2.0802,2.0804,2.0796,2.0794,2.0786,2.0786,2.0785,2.0785,0,2.1048,2.1029,2.1017,2.0992,2.0986,2.0981,2.096,2.0953,2.0938,2.0926,2.0922,2.0898,2.0883,2.0861,2.0839,2.0828,2.0821,2.0814,2.0828,2.0825,2.083,2.083,2.0847,2.0849,2.0821,2.0822,2.0822,0,2.1054,2.1049,2.1025,2.1018,2.1007,2.0996,2.0987,2.0966,2.0957,2.0935,2.0931,2.0916,2.0902,2.088,2.086,2.0844,2.0836,2.0843,2.0833,2.084,2.0836,2.0837,2.0837,2.0845,2.0845,2.0846,2.0846,0,2.1068,2.106,2.1048,2.1034,2.1024,2.1011,2.0997,2.0992,2.0968,2.0959,2.0945,2.0935,2.0914,2.0899,2.0881,2.0868,2.0853,2.085,2.085,2.0856,2.0865,2.0861,2.0835,2.0849,2.0849,2.0849,2.0848,2.0848,2.1081,2.1076,2.106,2.1047,2.1036,2.1024,2.1017,2.1002,2.099,2.0973,2.0962,2.0949,2.0931,2.0905,2.0894,2.0883,2.0876,2.0876,2.0876,2.0876,2.0879,2.0867,2.0879,2.0879,2.0879,2.0879,2.0879,0,2.1095,2.1084,2.1073,2.1055,2.1046,2.1036,2.102,2.1013,2.1002,2.0988,2.0976,2.0961,2.0947,2.0928,2.0912,2.0908,2.0901,2.0904,2.0904,2.0902,2.0885,2.0887,2.0911,2.0911,2.0911,2.0911,2.0911,2.0911,2.11,2.1092,2.1082,2.1068,2.1057,2.1045,2.1038,2.1027,2.1016,2.1,2.099,2.0978,2.0961,2.0946,2.0933,2.0927,2.0923,2.0929,2.0921,2.0906,2.0903,2.09,2.0901,2.0928,2.0928,2.0939,2.0939,2.0939]},{"header":{"parameterUnit":"m.s-1","parameterCategory":1,"la1":30.2991,"la2":30.254,"lo1":-89.0895,"lo2":-89.0444,"dy":0.0017,"dx":0.0017,"nx":28,"ny":28,"refTime":"2026-01-11T03:00:00:Z","depth":0,"parameterNumber":3,"parameterNumberName":"V-component_of_WINDS"},"data":[0,0,0,0,0,0,0,0,0,0,0,0,0,0,0,0,0,0,0,0,0,0,0,0,0,0,0,0,0,0,0,0,0,0,0,0,0,0,0,0,0,0,0,0,0,0,0,0,0,0,0,0,0,0,0,0,0,0,-5.2958,-5.2958,0,-5.2935,-5.2935,-5.2935,-5.2855,-5.2853,-5.2851,-5.2849,-5.2823,-5.2824,-5.2824,0,0,0,0,0,0,0,0,0,0,0,0,0,-5.2934,-5.2935,-5.2958,-5.2958,-5.2958,-5.2935,-5.2935,-5.2935,-5.2855,-5.2853,-5.2851,-5.2849,-5.2822,-5.2823,-5.2825,0,0,0,0,0,0,0,0,0,0,0,0,0,-5.2931,-5.2935,-5.2959,-5.2915,-5.2911,-5.2936,-5.2935,-5.2935,-5.2855,-5.2853,-5.285,-5.2848,-5.2822,-5.2823,-5.2825,-5.2888,0,0,-5.2829,-5.283,0,0,0,0,0,0,0,0,-5.2931,-5.2932,-5.2922,-5.2918,-5.2914,-5.2895,-5.2916,-5.2919,-5.2856,-5.2877,-5.2849,-5.2846,-5.2849,-5.2848,-5.2849,-5.2886,-5.2885,-5.2829,-5.283,-5.2831,-5.2831,0,0,0,0,0,0,0,-5.2931,-5.2932,-5.2949,-5.2922,-5.2917,-5.2897,-5.2894,-5.2917,-5.2878,-5.2875,-5.2869,-5.2867,-5.2846,-5.2848,-5.2848,-5.2885,-5.2829,-5.283,-5.2831,-5.2832,-5.2977,-5.298,0,0,0,0,0,0,-5.2938,-5.2933,-5.295,-5.2948,-5.2916,-5.29,-5.2896,-5.2904,-5.2877,-5.2871,-5.287,-5.2864,-5.2847,-5.2846,-5.2847,-5.2921,-5.2831,-5.2832,-5.2833,-5.2974,-5.2978,-5.2981,0,0,0,0,0,0,-5.2938,-5.294,-5.2951,-5.2939,-5.2939,-5.2903,-5.2913,-5.2905,-5.2907,-5.2874,-5.2866,-5.2879,-5.2845,-5.2845,-5.2879,-5.2919,-5.2833,-5.2834,-5.2971,-5.2975,-5.2979,-5.307,0,0,0,0,0,0,-5.2937,-5.2941,-5.2964,-5.294,-5.294,-5.2984,-5.2915,-5.2906,-5.291,-5.2902,-5.288,-5.2874,-5.2843,-5.2878,-5.2881,-5.292,-5.2835,-5.2967,-5.2973,-5.2978,-5.3063,-5.3077,-5.3089,0,0,0,0,0,-5.2937,-5.2988,-5.2965,-5.2968,-5.2968,-5.2986,-5.2986,-5.2949,-5.2913,-5.2937,-5.2917,-5.2875,-5.2915,-5.2882,-5.2885,-5.2925,-5.2964,-5.2971,-5.2977,-5.3057,-5.3074,-5.3088,0,0,0,0,0,0,-5.3015,-5.2984,-5.2958,-5.3004,-5.2999,-5.2973,-5.3,-5.2968,-5.2971,-5.2963,-5.2917,-5.2913,-5.2955,-5.2943,-5.2907,-5.2987,-5.2933,-5.294,-5.2993,-5.3008,-5.3021,-5.3023,-5.2836,0,0,0,0,0,-5.3038,-5.3055,-5.3027,-5.307,-5.3069,-5.3036,-5.3042,-5.3015,-5.3007,-5.3004,-5.2986,-5.2979,-5.2991,-5.2999,-5.3007,-5.3062,-5.3057,-5.3091,-5.3104,-5.3114,-5.3121,-5.3153,-5.3168,-5.3003,-5.3003,-5.3003,0,0,-5.3084,-5.307,-5.3083,-5.3086,-5.3078,-5.3099,-5.3034,-5.3057,-5.3071,-5.3007,-5.3039,-5.3027,-5.3016,-5.3063,-5.3082,-5.3054,-5.3167,-5.3123,-5.3132,-5.3133,-5.3162,-5.3177,-5.3191,-5.3008,-5.3007,-5.3006,0,0,-5.3179,-5.317,-5.3206,-5.3202,-5.3192,-5.3171,-5.318,-5.316,-5.315,-5.3182,-5.3136,-5.3153,-5.3172,-5.3168,-5.3168,-5.3269,-5.3232,-5.3273,-5.3339,-5.337,-5.3384,-5.3395,-5.3433,-5.3447,-5.328,-5.328,-5.328,0,-5.3238,-5.3266,-5.3229,-5.3256,-5.326,-5.3206,-5.3243,-5.324,-5.3234,-5.3238,-5.3207,-5.3234,-5.3223,-5.3269,-5.3295,-5.3296,-5.3306,-5.3274,-5.3385,-5.3396,-5.3406,-5.3442,-5.3456,-5.3285,-5.3285,-5.3284,-5.3284,0,-5.334,-5.3361,-5.3392,-5.339,-5.3397,-5.3429,-5.3398,-5.341,-5.3384,-5.3366,-5.3402,-5.3388,-5.3394,-5.3403,-5.3376,-5.3447,-5.343,-5.3393,-5.3338,-5.3428,-5.346,-5.3474,-5.3293,-5.3291,-5.3289,-5.3288,0,0,-5.348,-5.3461,-5.3473,-5.3474,-5.3462,-5.3478,-5.3509,-5.3518,-5.353,-5.3529,-5.3555,-5.3575,-5.3543,-5.3543,-5.3516,-5.3544,-5.3628,-5.3503,-5.3503,-5.3529,-5.3708,-5.3737,-5.3753,-5.3604,-5.3606,-5.3608,-5.371,0,-5.3572,-5.3625,-5.3595,-5.3652,-5.3673,-5.3624,-5.3652,-5.3649,-5.3634,-5.3649,-5.3633,-5.3649,-5.3603,-5.3604,-5.3629,-5.3612,-5.3663,-5.3604,-5.3628,-5.363,-5.3633,-5.377,-5.3799,-5.3895,-5.3722,-5.3724,-5.3726,0,-5.3685,-5.3693,-5.3753,-5.3742,-5.375,-5.3775,-5.3783,-5.3798,-5.3794,-5.3782,-5.3786,-5.3754,-5.3785,-5.3732,-5.3775,-5.3736,-5.3745,-5.3738,-5.3741,-5.3742,-5.3683,-5.3775,-5.3924,-5.394,-5.3745,-5.3743,-5.3742,0,-5.3784,-5.3808,-5.3849,-5.3851,-5.3838,-5.3858,-5.3854,-5.3848,-5.3856,-5.3863,-5.3869,-5.3878,-5.3884,-5.3893,-5.3865,-5.3828,-5.3913,-5.3857,-5.3905,-5.3906,-5.3924,-5.3923,-5.4078,-5.3929,-5.3928,-5.3928,-5.3928,0,-5.389,-5.3929,-5.3894,-5.3919,-5.3962,-5.3929,-5.3973,-5.3963,-5.3959,-5.3982,-5.394,-5.3963,-5.3924,-5.3943,-5.3921,-5.3962,-5.3964,-5.3956,-5.395,-5.396,-5.3962,-5.3965,-5.3958,-5.3932,-5.3931,-5.393,-5.393,0,-5.4006,-5.3984,-5.4025,-5.4012,-5.401,-5.4043,-5.4032,-5.4055,-5.404,-5.407,-5.4075,-5.405,-5.4071,-5.4045,-5.4061,-5.4047,-5.4104,-5.4087,-5.4106,-5.4101,-5.4152,-5.4148,-5.4314,-5.4335,-5.4172,-5.4173,-5.4175,0,-5.4075,-5.4105,-5.4097,-5.4111,-5.411,-5.4131,-5.4141,-5.411,-5.4122,-5.4124,-5.4147,-5.4165,-5.4178,-5.4214,-5.4197,-5.4211,-5.4195,-5.4253,-5.4197,-5.4208,-5.4198,-5.4197,-5.4201,-5.4264,-5.4266,-5.4267,-5.4269,0,-5.4201,-5.419,-5.4206,-5.4221,-5.4235,-5.4244,-5.425,-5.4263,-5.4231,-5.4247,-5.427,-5.428,-5.43,-5.4319,-5.433,-5.4325,-5.4293,-5.4287,-5.4299,-5.431,-5.432,-5.4317,-5.4138,-5.4283,-5.4281,-5.428,-5.4279,-5.4279,-5.4297,-5.4323,-5.4323,-5.4344,-5.4346,-5.4354,-5.4377,-5.4366,-5.4384,-5.44,-5.438,-5.4409,-5.4408,-5.442,-5.442,-5.4442,-5.4417,-5.4434,-5.4439,-5.4444,-5.4453,-5.4317,-5.4444,-5.4443,-5.4443,-5.4443,-5.4442,0,-5.4422,-5.4421,-5.4441,-5.4453,-5.447,-5.4441,-5.4447,-5.4463,-5.449,-5.4493,-5.4508,-5.4535,-5.4555,-5.4542,-5.4559,-5.458,-5.4566,-5.4585,-5.4584,-5.4584,-5.4472,-5.4461,-5.4597,-5.4597,-5.4597,-5.4597,-5.4597,-5.4597,-5.4489,-5.4533,-5.4523,-5.4568,-5.4566,-5.4596,-5.4602,-5.461,-5.4613,-5.4647,-5.4664,-5.4657,-5.4654,-5.4672,-5.4689,-5.4685,-5.4694,-5.472,-5.471,-5.4606,-5.4591,-5.4577,-5.4566,-5.4722,-5.4722,-5.482,-5.4821,-5.4822]}]]